WGN1247 RKSI-EDDK

Flight info

Callsign WGN1247
Flight time N/A
Altitude 32000
Route NOPIK Y697 AGAVO/K0806S0660 A591 IKEKA W4 FZ/K0900S0980 W4 HCH W200 DOVIV W55 PAMRU W34 LADIX B339 ASILA A575 UPREK W28 LAGEB W66 IPDAT/K0907S1040 W66 NUKTI B215 KABDO W119 GOBOK A343 RULAD/K0887F340 M610 BASPI/K0883F360 M610 TIPSA DCT TAR DCT KOLAM N143 OGOLI N193 LAPZE Y720 PIDWO N147 OTBOR/N0480F360 A480 TIMGA B476 METKA/N0483F380 L88 NIJAT N644 LAGAS DCT SARPI UG67 TBN UM11 CRM UL746 ODERO DCT OPT/N0477F400 DCT IRLOX DCT BUDOP DCT BALUX DCT BEGLA DCT STO DCT DITIS DCT VEXIL DCT KUMER DCT PIROT/N0483F410 N850 LARBU/N0479F400 DCT PODER Z189 RUNER T858 KOPAG KOPAG1B
Aircraft MD11/H-SDE1E2E3FGHIJ2J3J4J5M1RWXY/LB1D1

Departure

Time N/A
Airport Incheon International Airport (RKSI)

Arrival

Time 2026-05-05 18:28
Airport Cologne Bonn Airport (EDDK)
Time Latitude Longitude Altitude Speed Heading
2026-05-05 17:15 47.80447 17.21670 39834 ft 447 kts 287°
2026-05-05 17:15 47.81471 17.17306 39832 ft 446 kts 288°
2026-05-05 17:15 47.84207 17.08984 39824 ft 452 kts 303°
2026-05-05 17:16 47.88117 17.01676 39824 ft 455 kts 308°
2026-05-05 17:16 47.92227 16.94456 39820 ft 456 kts 308°
2026-05-05 17:17 47.96258 16.87158 39799 ft 456 kts 307°
2026-05-05 17:17 48.00230 16.79823 39785 ft 456 kts 307°
2026-05-05 17:18 48.04190 16.72444 39779 ft 452 kts 305°
2026-05-05 17:18 48.08114 16.65108 39773 ft 450 kts 306°
2026-05-05 17:19 48.12041 16.57785 39774 ft 451 kts 306°
2026-05-05 17:19 48.15947 16.50471 39775 ft 452 kts 306°
2026-05-05 17:20 48.19869 16.43109 39778 ft 451 kts 306°
2026-05-05 17:20 48.23779 16.35728 39769 ft 456 kts 306°
2026-05-05 17:21 48.27744 16.28243 39756 ft 457 kts 306°
2026-05-05 17:22 48.33630 16.17066 39733 ft 456 kts 306°
2026-05-05 17:22 48.37563 16.09542 39739 ft 457 kts 306°
2026-05-05 17:23 48.41493 16.02004 39719 ft 457 kts 306°
2026-05-05 17:23 48.43473 15.98278 39380 ft 453 kts 306°
2026-05-05 17:23 48.45460 15.94578 38296 ft 454 kts 306°
2026-05-05 17:23 48.47454 15.90884 37052 ft 455 kts 306°
2026-05-05 17:24 48.49418 15.87248 36499 ft 453 kts 306°
2026-05-05 17:24 48.51420 15.83532 36101 ft 458 kts 306°
2026-05-05 17:24 48.53438 15.79778 35796 ft 459 kts 306°
2026-05-05 17:25 48.57473 15.72256 35711 ft 461 kts 306°
2026-05-05 17:25 48.61499 15.64725 35705 ft 460 kts 306°
2026-05-05 17:26 48.65515 15.57192 35703 ft 460 kts 306°
2026-05-05 17:26 48.69498 15.49698 35702 ft 459 kts 306°
2026-05-05 17:27 48.73502 15.42144 35711 ft 458 kts 306°
2026-05-05 17:27 48.77494 15.34591 35707 ft 459 kts 306°
2026-05-05 17:28 48.81488 15.27012 35703 ft 459 kts 306°
2026-05-05 17:28 48.85454 15.19465 35704 ft 459 kts 306°
2026-05-05 17:29 48.89669 15.12135 35705 ft 461 kts 310°
2026-05-05 17:29 48.94078 15.05129 35717 ft 461 kts 311°
2026-05-05 17:30 48.98537 14.98100 35711 ft 461 kts 311°
2026-05-05 17:30 49.02983 14.91031 35716 ft 461 kts 311°
2026-05-05 17:31 49.07417 14.83935 35718 ft 461 kts 311°
2026-05-05 17:31 49.11814 14.76876 35722 ft 461 kts 311°
2026-05-05 17:32 49.16227 14.69771 35726 ft 461 kts 310°
2026-05-05 17:32 49.20642 14.62644 35724 ft 461 kts 310°
2026-05-05 17:33 49.25056 14.55499 35726 ft 461 kts 310°
2026-05-05 17:33 49.29433 14.48394 35732 ft 461 kts 310°
2026-05-05 17:34 49.33830 14.41236 35730 ft 461 kts 310°
2026-05-05 17:34 49.38234 14.34048 35727 ft 461 kts 310°
2026-05-05 17:35 49.42604 14.26895 35726 ft 462 kts 310°
2026-05-05 17:35 49.46980 14.19650 35731 ft 461 kts 309°
2026-05-05 17:36 49.51331 14.12432 35727 ft 461 kts 309°
2026-05-05 17:36 49.55710 14.05187 35733 ft 462 kts 309°
2026-05-05 17:37 49.60093 13.97933 35734 ft 463 kts 309°
2026-05-05 17:37 49.64486 13.90640 35734 ft 463 kts 309°
2026-05-05 17:38 49.68851 13.83375 35733 ft 463 kts 309°
2026-05-05 17:38 49.73237 13.76052 35733 ft 463 kts 309°
2026-05-05 17:39 49.77615 13.68721 35736 ft 463 kts 309°
2026-05-05 17:39 49.81973 13.61402 35734 ft 466 kts 309°
2026-05-05 17:40 49.86374 13.53990 35740 ft 466 kts 309°
2026-05-05 17:40 49.90750 13.46602 35735 ft 465 kts 309°
2026-05-05 17:41 49.95124 13.39194 35727 ft 465 kts 308°
2026-05-05 17:41 49.99493 13.31770 35727 ft 465 kts 308°
2026-05-05 17:42 50.03807 13.24348 35729 ft 465 kts 308°
2026-05-05 17:42 50.08157 13.16861 35730 ft 465 kts 308°
2026-05-05 17:43 50.12503 13.09401 35767 ft 465 kts 308°
2026-05-05 17:43 50.16817 13.01987 35776 ft 465 kts 308°
2026-05-05 17:44 50.21159 12.94505 35785 ft 464 kts 308°
2026-05-05 17:44 50.25509 12.86984 35775 ft 466 kts 308°
2026-05-05 17:45 50.29831 12.79492 35771 ft 466 kts 308°
2026-05-05 17:45 50.34175 12.71939 35760 ft 466 kts 308°
2026-05-05 17:46 50.38512 12.64380 35754 ft 466 kts 308°
2026-05-05 17:46 50.42896 12.56863 35770 ft 467 kts 308°
2026-05-05 17:47 50.47330 12.49364 35739 ft 470 kts 308°
2026-05-05 17:47 50.51762 12.41877 35744 ft 470 kts 308°
2026-05-05 17:48 50.56216 12.34327 35739 ft 470 kts 308°
2026-05-05 17:48 50.60672 12.26746 35735 ft 470 kts 308°
2026-05-05 17:49 50.65085 12.19213 35744 ft 470 kts 308°
2026-05-05 17:49 50.69548 12.11570 35739 ft 474 kts 308°
2026-05-05 17:50 50.74016 12.03900 35754 ft 473 kts 308°
2026-05-05 17:50 50.78434 11.96292 35752 ft 472 kts 308°
2026-05-05 17:51 50.82128 11.89913 35750 ft 472 kts 308°
2026-05-05 17:51 50.86563 11.82230 35765 ft 472 kts 308°
2026-05-05 17:52 50.91737 11.73238 35778 ft 475 kts 308°
2026-05-05 17:52 50.95466 11.66725 35777 ft 475 kts 307°
2026-05-05 17:53 50.99862 11.58960 35786 ft 475 kts 307°
2026-05-05 17:53 51.04282 11.51167 35790 ft 473 kts 307°
2026-05-05 17:54 51.08696 11.43396 35791 ft 473 kts 307°
2026-05-05 17:54 51.13087 11.35648 35812 ft 475 kts 307°
2026-05-05 17:55 51.17513 11.27817 35796 ft 476 kts 307°
2026-05-05 17:55 51.21945 11.19952 35815 ft 476 kts 307°
2026-05-05 17:56 51.26366 11.12081 35802 ft 476 kts 307°
2026-05-05 17:56 51.30787 11.04186 35812 ft 474 kts 307°
2026-05-05 17:57 51.35159 10.96353 35814 ft 475 kts 307°
2026-05-05 17:57 51.39562 10.88436 35816 ft 475 kts 307°
2026-05-05 17:58 51.43963 10.80502 35820 ft 475 kts 307°
2026-05-05 17:58 51.48335 10.72593 35820 ft 475 kts 307°
2026-05-05 17:59 51.52704 10.64619 35826 ft 475 kts 306°
2026-05-05 17:59 51.56370 10.55933 35826 ft 464 kts 290°
2026-05-05 18:00 51.58651 10.46331 35829 ft 459 kts 284°
2026-05-05 18:00 51.60776 10.36664 35819 ft 458 kts 285°
2026-05-05 18:01 51.63005 10.27116 35815 ft 458 kts 286°
2026-05-05 18:01 51.65309 10.17520 35831 ft 459 kts 287°
2026-05-05 18:02 51.67621 10.07909 35823 ft 461 kts 287°
2026-05-05 18:02 51.69932 9.98254 35823 ft 461 kts 287°
2026-05-05 18:03 51.72221 9.88637 35821 ft 461 kts 286°
2026-05-05 18:03 51.74509 9.78975 35823 ft 461 kts 286°
2026-05-05 18:04 51.76793 9.69286 35823 ft 461 kts 286°
2026-05-05 18:04 51.79061 9.59623 35816 ft 462 kts 286°
2026-05-05 18:05 51.81336 9.49889 35826 ft 462 kts 286°
2026-05-05 18:05 51.83595 9.40152 35824 ft 462 kts 285°
2026-05-05 18:06 51.85236 9.30250 35804 ft 454 kts 273°
2026-05-05 18:06 51.85096 9.20171 35808 ft 444 kts 256°
2026-05-05 18:07 51.83141 9.10796 35455 ft 439 kts 240°
2026-05-05 18:07 51.81600 9.06612 34983 ft 436 kts 232°
2026-05-05 18:07 51.79740 9.02733 34393 ft 434 kts 227°
2026-05-05 18:07 51.77749 8.99067 33805 ft 433 kts 226°
2026-05-05 18:08 51.75714 8.95447 33167 ft 434 kts 225°
2026-05-05 18:08 51.73678 8.91818 32586 ft 436 kts 226°
2026-05-05 18:08 51.71675 8.88204 31988 ft 439 kts 226°
2026-05-05 18:08 51.69640 8.84494 31406 ft 442 kts 226°
2026-05-05 18:09 51.67593 8.80743 30823 ft 447 kts 226°
2026-05-05 18:09 51.65539 8.76954 30205 ft 450 kts 226°
2026-05-05 18:09 51.63480 8.73142 29535 ft 451 kts 226°
2026-05-05 18:09 51.61326 8.69504 28873 ft 446 kts 219°
2026-05-05 18:10 51.58846 8.66547 28210 ft 442 kts 211°
2026-05-05 18:10 51.56231 8.64078 27545 ft 438 kts 207°
2026-05-05 18:10 51.53548 8.61771 26892 ft 435 kts 207°
2026-05-05 18:10 51.50879 8.59512 26251 ft 431 kts 207°
2026-05-05 18:11 51.48243 8.57251 25614 ft 428 kts 207°
2026-05-05 18:11 51.45626 8.54973 24984 ft 426 kts 207°
2026-05-05 18:11 51.43039 8.52681 24356 ft 423 kts 207°
2026-05-05 18:11 51.40475 8.50389 23728 ft 420 kts 208°
2026-05-05 18:12 51.37966 8.48137 23072 ft 417 kts 208°
2026-05-05 18:12 51.35441 8.45870 22385 ft 413 kts 208°
2026-05-05 18:12 51.32937 8.43624 21769 ft 411 kts 208°
2026-05-05 18:12 51.30450 8.41395 21189 ft 406 kts 208°
2026-05-05 18:13 51.28093 8.38920 20697 ft 407 kts 218°
2026-05-05 18:13 51.26154 8.35626 20116 ft 408 kts 231°
2026-05-05 18:13 51.24617 8.31877 19543 ft 408 kts 237°
2026-05-05 18:13 51.23223 8.27917 18943 ft 407 kts 239°
2026-05-05 18:14 51.21883 8.23963 18345 ft 404 kts 239°
2026-05-05 18:14 51.20545 8.20035 17700 ft 401 kts 239°
2026-05-05 18:14 51.19198 8.16160 17057 ft 397 kts 239°
2026-05-05 18:14 51.17843 8.12340 16458 ft 394 kts 239°
2026-05-05 18:15 51.16484 8.08561 15878 ft 391 kts 238°
2026-05-05 18:15 51.15130 8.04831 15296 ft 386 kts 238°
2026-05-05 18:15 51.13798 8.01180 14738 ft 384 kts 238°
2026-05-05 18:15 51.12458 7.97518 14182 ft 381 kts 238°
2026-05-05 18:16 51.11119 7.93885 13624 ft 378 kts 238°
2026-05-05 18:16 51.09790 7.90290 13104 ft 375 kts 238°
2026-05-05 18:16 51.08471 7.86724 12700 ft 373 kts 238°
2026-05-05 18:16 51.07125 7.83197 12318 ft 370 kts 234°
2026-05-05 18:17 51.05369 7.80271 11942 ft 364 kts 214°
2026-05-05 18:17 51.03145 7.78514 11820 ft 359 kts 198°
2026-05-05 18:17 51.00840 7.77468 11811 ft 331 kts 193°
2026-05-05 18:17 50.98661 7.76651 11699 ft 311 kts 192°
2026-05-05 18:18 50.96609 7.75915 11537 ft 292 kts 192°
2026-05-05 18:18 50.94656 7.75220 10573 ft 286 kts 192°
2026-05-05 18:18 50.92725 7.74536 9514 ft 282 kts 192°
2026-05-05 18:18 50.90822 7.73865 8427 ft 278 kts 192°
2026-05-05 18:19 50.88948 7.73209 7817 ft 276 kts 192°
2026-05-05 18:19 50.87078 7.72521 7438 ft 274 kts 197°
2026-05-05 18:19 50.85442 7.71076 7068 ft 273 kts 221°
2026-05-05 18:19 50.84181 7.68821 6871 ft 274 kts 231°
2026-05-05 18:20 50.83084 7.66539 6747 ft 243 kts 232°
2026-05-05 18:20 50.82086 7.64442 5865 ft 236 kts 232°
2026-05-05 18:20 50.81116 7.62405 4922 ft 233 kts 232°
2026-05-05 18:20 50.80147 7.60369 4043 ft 228 kts 232°
2026-05-05 18:21 50.79191 7.58365 3631 ft 229 kts 232°
2026-05-05 18:21 50.78229 7.56355 3255 ft 229 kts 232°
2026-05-05 18:21 50.77271 7.54356 2911 ft 227 kts 232°
2026-05-05 18:21 50.76327 7.52381 2810 ft 227 kts 232°
2026-05-05 18:22 50.75377 7.50387 2952 ft 228 kts 232°
2026-05-05 18:22 50.74410 7.48366 2995 ft 233 kts 232°
2026-05-05 18:22 50.73423 7.46318 2999 ft 234 kts 232°
2026-05-05 18:22 50.72496 7.44391 2979 ft 208 kts 234°
2026-05-05 18:23 50.71992 7.42295 2967 ft 206 kts 266°
2026-05-05 18:23 50.72247 7.40124 3014 ft 205 kts 290°
2026-05-05 18:23 50.72765 7.38029 3018 ft 205 kts 292°
2026-05-05 18:23 50.73283 7.35935 3008 ft 204 kts 291°
2026-05-05 18:24 50.73825 7.33858 2992 ft 205 kts 300°
2026-05-05 18:24 50.74711 7.32121 3022 ft 203 kts 316°
2026-05-05 18:24 50.75739 7.30585 2958 ft 203 kts 319°
2026-05-05 18:24 50.76744 7.29155 2673 ft 184 kts 320°
2026-05-05 18:25 50.77630 7.27898 2412 ft 160 kts 320°
2026-05-05 18:25 50.78167 7.27132 2276 ft 155 kts 320°
2026-05-05 18:25 50.79215 7.25628 2036 ft 152 kts 321°
2026-05-05 18:25 50.79993 7.24507 1841 ft 150 kts 321°
2026-05-05 18:26 50.80765 7.23403 1650 ft 149 kts 320°
2026-05-05 18:26 50.81527 7.22303 1458 ft 147 kts 320°
2026-05-05 18:26 50.82281 7.21221 1227 ft 145 kts 319°
2026-05-05 18:26 50.83012 7.20163 1037 ft 143 kts 319°
2026-05-05 18:27 50.83743 7.19110 839 ft 141 kts 318°
2026-05-05 18:27 50.84463 7.18074 645 ft 138 kts 318°
2026-05-05 18:27 50.85176 7.17056 450 ft 138 kts 318°
2026-05-05 18:27 50.85873 7.16044 317 ft 126 kts 317°
2026-05-05 18:28 50.86804 7.14713 273 ft 54 kts 317°
2026-05-05 18:28 50.87052 7.14346 261 ft 44 kts 318°
2026-05-05 18:28 50.87249 7.14036 252 ft 37 kts 304°
2026-05-05 18:29 50.87309 7.13799 247 ft 11 kts 282°
2026-05-05 18:29 50.87321 7.13695 245 ft 9 kts 280°
2026-05-05 18:29 50.87330 7.13611 243 ft 7 kts 279°
2026-05-05 18:29 50.87339 7.13532 241 ft 7 kts 279°
2026-05-05 18:30 50.87344 7.13482 240 ft 0 kts 279°
2026-05-05 18:30 50.87345 7.13475 240 ft 4 kts 279°
2026-05-05 18:30 50.87356 7.13365 240 ft 15 kts 280°
2026-05-05 18:31 50.87390 7.13249 240 ft 9 kts 312°
2026-05-05 18:31 50.87432 7.13186 240 ft 10 kts 317°
2026-05-05 18:31 50.87492 7.13101 240 ft 14 kts 317°
2026-05-05 18:31 50.87572 7.12986 240 ft 17 kts 317°
2026-05-05 18:32 50.87669 7.12844 240 ft 20 kts 317°
2026-05-05 18:32 50.87708 7.12787 240 ft 1 kts 316°
2026-05-05 18:32 50.87714 7.12779 240 ft 2 kts 317°
2026-05-05 18:32 50.87723 7.12752 240 ft 3 kts 289°
2026-05-05 18:33 50.87720 7.12722 240 ft 3 kts 253°
2026-05-05 18:33 50.87703 7.12680 240 ft 6 kts 234°
2026-05-05 18:33 50.87686 7.12651 240 ft 0 kts 228°
2026-05-05 18:34 50.87685 7.12649 240 ft 0 kts 228°
2026-05-05 18:34 50.87684 7.12646 240 ft 0 kts 228°